User: anonymous   Login
Location: Unspecified
(0.0000°N, 0.0000°E)
Time: 03:55:55
(UTC+00:00)
Language:

STSS DEMO 2 (USA 209) - Orbit

View from above orbital plane
View from above orbital plane
View from above satellite
View from above satellite

Ground track
Ground track

The orbit data is extracted from the following two-line orbital elements,

1 35938U 09052B   15120.73696486 0.00000000  00000-0  00000-0 0    05
2 35938  57.9866 328.4248 0018652 209.1063 150.8937 12.79142085    07
Epoch (UTC): 30 April 2015 17:41:13
Eccentricity: 0.0018652
inclination: 57.9866°
perigee height: 1330 km
apogee height: 1359 km
right ascension of ascending node: 328.4248°
argument of perigee: 209.1063°
revolutions per day: 12.79142085
mean anomaly at epoch: 150.8937°
orbit number at epoch: 0

The dashed part of the orbit path shows where the satellite is in the earth's shadow,  

DLR